Home   Weather   Hollabrunn   Past weeks

Flag for Austria Past Weather in Hollabrunn, Lower Austria, Austria — Yesterday and Last 2 Weeks

Now
28 °F

Chilly.


Feels Like: 28 °F
Forecast: 22 / 28 °F
Wind: 1 mph from Northwest

Location: Retz

Current Time: Jan 16, 2017 at 6:47:35 pm

Latest Report: Jan 16, 2017 at 5:00 pm


Visibility: N/A

Pressure: 30.23 "Hg

Humidity: 69%

Dew Point: 19 °F

Location of HollabrunnLocation

Past Weather in Hollabrunn — Graph

°F

Hollabrunn Temperature Yesterday

Maximum temperature yesterday: 36 °F (at 2:00 pm)
Minimum temperature yesterday: 25 °F (at 7:00 am)
Average temperature yesterday: 30 °F

High & Low Weather Summary for the Past Weeks

 TemperatureHumidityPressure
High42 °F (Jan 12, 2:00 pm)99% (Jan 1, 10:00 pm)30.68 "Hg (Jan 1, 10:00 pm)
Low9 °F (Jan 11, 2:00 am)53% (Jan 7, 1:00 pm)29.44 "Hg (Jan 13, 6:00 am)
Average25 °F78%30.11 "Hg
* Reported Jan 1 5:00 pm — Jan 16 5:00 pm, Hollabrunn, Weather by CustomWeather, © 2017

Note: Actual official high and low records may vary slightly from our data, if they occured in-between our weather recording intervals... More about our weather records

Advertising

Hollabrunn Weather History for the Previous 24 Hours

Scroll right to see more
 ConditionsComfort  
Time TempWeatherWind HumidityBarometerVisibility
5:00 pm
Mon, Jan 16
28 °FChilly.1 mph69%30.23 "HgN/A
4:00 pm29 °FChilly.1 mph69%30.22 "HgN/A
3:00 pm30 °FChilly.2 mph71%30.21 "HgN/A
2:00 pm31 °FChilly.No wind72%30.19 "HgN/A
1:00 pm29 °FPartly sunny.1 mph76%30.20 "Hg16 mi
12:00 pm27 °FChilly.2 mph79%30.21 "HgN/A
11:00 am25 °FChilly.1 mph82%30.22 "HgN/A
10:00 am25 °FCold.1 mph82%30.21 "HgN/A
9:00 am19 °FCold.1 mph89%30.22 "HgN/A
8:00 am18 °FCold.2 mph89%30.20 "HgN/A
7:00 am23 °FPassing clouds.6 mph80%30.17 "Hg5 mi
6:00 am21 °FCold.1 mph85%30.17 "HgN/A
5:00 am21 °FCold.1 mph85%30.16 "HgN/A
4:00 am25 °FCold.6 mph78%30.15 "HgN/A
3:00 am25 °FChilly.5 mph78%30.16 "HgN/A
2:00 am23 °FCold.1 mph86%30.16 "HgN/A
1:00 am23 °FCold.2 mph85%30.16 "HgN/A
12:00 am26 °FChilly.3 mph82%30.16 "HgN/A
11:00 pm
Sun, Jan 15
28 °FChilly.6 mph77%30.15 "HgN/A
10:00 pm28 °FChilly.5 mph78%30.15 "HgN/A
9:00 pm26 °FChilly.3 mph84%30.14 "HgN/A
8:00 pm26 °FChilly.2 mph86%30.14 "HgN/A
7:00 pm29 °FPassing clouds.3 mph78%30.13 "Hg6 mi
6:00 pm30 °FChilly.7 mph77%30.11 "HgN/A
Weather by CustomWeather, © 2017

See weather overviewHow to use our weather pages